This is the latest recevied weather packets stored in our database for station/object SV9TNF-55. If no packets are shown the sender has not sent any weather packets the latest 10 day(s).
| Time | Temp. | Humidity | Pressure | Rain* | Wind** | Luminosity | Snow |
|---|---|---|---|---|---|---|---|
| 1788509286 | 20.56° C | 52% | 1013.5 hPa | 0 mm | 4.92 m/s, 292° | - | - |
| 1788508685 | 20.56° C | 52% | 1013.5 hPa | 0 mm | 4.92 m/s, 292° | - | - |
| 1788508085 | 20.56° C | 49% | 1013.8 hPa | 0 mm | 4.92 m/s, 292° | - | - |
| 1788507485 | 20.56° C | 49% | 1013.4 hPa | 0 mm | 5.36 m/s, 292° | - | - |
| 1788506885 | 20° C | 50% | 1013.4 hPa | 0 mm | 4.92 m/s, 292° | - | - |
| 1788506285 | 20.56° C | 49% | 1013.4 hPa | 0 mm | 4.02 m/s, 292° | - | - |
| 1788505685 | 20° C | 49% | 1013.2 hPa | 0 mm | 3.58 m/s, 292° | - | - |
| 1788505084 | 20° C | 53% | 1013.1 hPa | 0 mm | 2.24 m/s, 292° | - | - |
| 1788504484 | 19.44° C | 54% | 1013.2 hPa | 0 mm | 2.68 m/s, 292° | - | - |
| 1788503884 | 19.44° C | 56% | 1013.3 hPa | 0 mm | 2.68 m/s, 292° | - | - |
| 1788503283 | 19.44° C | 57% | 1013.1 hPa | 0 mm | 3.58 m/s, 292° | - | - |
| 1788502684 | 18.89° C | 58% | 1012.9 hPa | 0 mm | 4.02 m/s, 270° | - | - |
| 1788502084 | 18.89° C | 58% | 1012.9 hPa | 0 mm | 4.02 m/s, 270° | - | - |
| 1788501483 | 18.89° C | 60% | 1012.8 hPa | 0 mm | 3.13 m/s, 292° | - | - |
| 1788500883 | 18.89° C | 61% | 1012.9 hPa | 0 mm | 3.58 m/s, 292° | - | - |
| 1788500283 | 18.33° C | 61% | 1012.9 hPa | 0 mm | 3.13 m/s, 292° | - | - |
| 1788499683 | 18.33° C | 60% | 1012.8 hPa | 0 mm | 3.13 m/s, 292° | - | - |
| 1788499083 | 18.33° C | 59% | 1012.7 hPa | 0 mm | 2.68 m/s, 292° | - | - |
| 1788498483 | 18.89° C | 57% | 1012.7 hPa | 0 mm | 3.13 m/s, 292° | - | - |
| 1788497883 | 18.89° C | 53% | 1012.6 hPa | 0 mm | 2.68 m/s, 315° | - | - |
| 1788497283 | 18.89° C | 53% | 1012.3 hPa | 0 mm | 2.68 m/s, 292° | - | - |
| 1788496682 | 18.89° C | 52% | 1012.2 hPa | 0 mm | 2.24 m/s, 292° | - | - |
| 1788496082 | 19.44° C | 51% | 1012 hPa | 0 mm | 3.13 m/s, 292° | - | - |
| 1788495483 | 19.44° C | 53% | 1012 hPa | 0 mm | 2.24 m/s, 292° | - | - |
| 1788494882 | 19.44° C | 53% | 1011.9 hPa | 0 mm | 3.13 m/s, 292° | - | - |
* Rain latest hour (hover to see other rain measurements)
** Current wind speed in m/s (hover to see current wind gust speed)